STARLINK-37121, 68383

Orbit data source: Space-Track

STARLINK-37121, 68383 is a payload satellite owned by SpaceX/Seattle (US) in SSO that was launched on Thu, 26 Mar 2026 UTC via an FALCON 9 launch vehicle from the Air Force Western Test Range (AFWTR). Payload-class satellites include a variety of spacecraft equipped with specific instruments for various scientific and technological missions. These include communications satellites like Starlink; space stations such as the ISS; scientific satellites like the Hubble; Earth observation satellites from companies like Planet Labs, Umbra, and HawkEye 360; GPS; miniature CubeSats for education and research; and military/defense satellites.

Loading next visibility...
Identifier
68383, 2026-063D
Orbit
SSO
Country
Flag of USUS
Related business
Manufacturer
SpaceX/Seattle
Mission
Operational spacecraft
Bus & Motor
STARLINK V2MO, Unknown motor
Mass
575 kg wet, ~530 kg dry
Launch date (UTC)
2026-03-26 (3 months ago)
Launch vehicle
FALCON 9
Launch site
Air Force Western Test Range (AFWTR)
Object type
Payload
Rocket body
Debris
Shape & HBR
Unknown shape, 17.7 m
Radar Cross Section
Large (>1 m²)

Expand to show TLE details & history
Last TLE update: 7 hours ago

TLE from 7 hours ago
0 STARLINK-37121
1 68383U 26063D   26165.93468386  .00013251  00000-0  41213-3 0  9998
2 68383  97.2857 308.1350 0000338  83.5005 276.6277 15.33439393 12792
Epoch: 2026-06-14T22:25Z
TLE epoch observation values (Epoch: 2026-06-14T22:25:56.685Z)
Latitude
0.00005°
Longitude
68.42051°
Altitude
468.645 km
Speed
7.632 km/s
True Right ascension
20h 32m 32s
True Declination
0° 00' 00"
Sunlit
Object was in full shadow at epoch
Visualization orbit readout
Latitude
Unknown
Longitude
Unknown
Altitude
Unknown
Speed
Unknown
Apparent Right ascension
Unknown
Apparent Declination
Unknown
Sunlit
N/A
Visualization observer readout
Local Sidereal Time
15:46:00
Azimuth
Unknown
Elevation
Unknown
Doppler factor
Unknown
Orbital elements
Apogee altitude
462.734 km
Perigee altitude
462.271 km
Semi-major axis
6,840.64 km
Eccentricity
0.00003
Inclination
97.2857°
RAAN
308.135°
Arg. of periapsis
83.5005°
True anomaly
276.62385°
Mean anomaly
276.6277°
Eccentric anomaly
276.62578°
Mean motion
3.83617 °/min
Orbital period
93.84 mins
BSTAR
0.00041213
Loading maneuver chart data...
Computing Atmospheric mass density...
Loading historical data...
Loading historical data...
Loading historical data...
Loading historical data...
Loading historical data...
Loading historical data...
Loading historical data...

Documentation

Showing up to 5 results
|